Weather History for Joplin, MO

Change the Weather History Date:

Monday, July 8, 2013

  Actual Average Record
Temperature  
Mean Temperature 83 °F 80 °F  
Max Temperature 95 °F 90 °F 101 °F (1980)
Min Temperature 71 °F 70 °F 56 °F (1958)
Degree Days  
Heating Degree Days 0 0  
Month to date heating degree days 0 0  
Since 1 June heating degree days 12 5  
Since 1 July heating degree days 0 0  
Cooling Degree Days 18 15  
Month to date cooling degree days 81 116  
Year to date cooling degree days 548 614  
Since 1 June cooling degree days 404 434  
Growing Degree Days 32 (Base 50)    
Moisture  
Dew Point 66 °F    
Average Humidity 60    
Maximum Humidity 79    
Minimum Humidity 41    
Precipitation  
Precipitation 0.00 in 0.15 in 1.80 in (2010)
Month to date precipitation 0.09 1.13  
Year to date precipitation 27.87 24.94  
Sea Level Pressure  
Sea Level Pressure 30.03 in    
Wind  
Wind Speed 9 mph (South)    
Max Wind Speed 17 mph    
Max Gust Speed 20 mph    
Visibility 10 miles    
Events      
T = Trace of Precipitation, MM = Missing Value Source: NWS Daily Summary

Daily Weather History Graph

Daily Weather History Graph

Search for Another Location

Airport:

Trip Planner

Search our weather history database for the weather conditions in past years. The results will help you decide how hot, cold, wet, or windy it might be!

Date:

Astronomy

Jul. 08, 2013 Rise Set
Actual Time 6:05 AM CDT 8:40 PM CDT
Civil Twilight 5:34 AM CDT 9:11 PM CDT
Nautical Twilight 4:57 AM CDT 9:48 PM CDT
Astronomical Twilight 4:14 AM CDT 10:30 PM CDT
Moon 6:33 AM CDT (7/8) 8:46 PM CDT (7/8)
Length of Visible Light 15h 36m
Length of Day
14h 35m
New Moon, 0% of the Moon is Illuminated
Jul 8
New Moon
Jul 15
First Quarter
Jul 22
Full
Jul 29
Last Quarter
Aug 6
New

Hourly Weather History & Observations

Time (CDT) Temp. Heat Index Dew Point Humidity Pressure Visibility Wind Dir Wind Speed Gust Speed Precip Events Conditions
12:53 AM 75.9 °F - 64.0 °F 67% 30.01 in 10.0 mi SSE 6.9 mph - N/A   Clear
1:53 AM 75.9 °F - 64.0 °F 67% 30.01 in 10.0 mi SSE 8.1 mph - N/A   Clear
2:53 AM 75.9 °F - 64.0 °F 67% 30.00 in 10.0 mi SSE 8.1 mph - N/A   Clear
3:53 AM 75.0 °F - 64.0 °F 69% 30.01 in 10.0 mi South 8.1 mph - N/A   Clear
4:53 AM 73.0 °F - 64.0 °F 73% 30.02 in 10.0 mi SSE 5.8 mph - N/A   Clear
5:53 AM 71.1 °F - 64.0 °F 78% 30.04 in 10.0 mi South 5.8 mph - N/A   Clear
6:53 AM 72.0 °F - 64.0 °F 76% 30.04 in 10.0 mi South 6.9 mph - N/A   Clear
7:53 AM 77.0 °F - 66.0 °F 69% 30.06 in 10.0 mi South 8.1 mph - N/A   Clear
8:53 AM 81.0 °F 83.8 °F 68.0 °F 65% 30.07 in 10.0 mi South 11.5 mph 18.4 mph N/A   Clear
9:53 AM 86.0 °F 90.1 °F 69.1 °F 57% 30.07 in 10.0 mi SSW 15.0 mph 19.6 mph N/A   Clear
10:53 AM 89.1 °F 93.7 °F 69.1 °F 52% 30.06 in 10.0 mi SW 15.0 mph - N/A   Clear
11:53 AM 91.0 °F 95.2 °F 68.0 °F 47% 30.06 in 10.0 mi SW 11.5 mph - N/A   Clear
12:53 PM 91.9 °F 95.4 °F 66.9 °F 44% 30.05 in 10.0 mi SW 9.2 mph - N/A   Scattered Clouds
1:53 PM 93.0 °F 96.4 °F 66.9 °F 42% 30.04 in 10.0 mi SSW 10.4 mph - N/A   Partly Cloudy
2:53 PM 93.9 °F 97.5 °F 66.9 °F 41% 30.02 in 10.0 mi South 9.2 mph 16.1 mph N/A   Partly Cloudy
3:53 PM 91.9 °F 95.4 °F 66.9 °F 44% 30.01 in 10.0 mi South 10.4 mph - N/A   Clear
4:53 PM 93.9 °F 97.0 °F 66.0 °F 40% 30.00 in 10.0 mi SSW 12.7 mph - N/A   Mostly Cloudy
5:53 PM 93.0 °F 95.9 °F 66.0 °F 41% 30.00 in 10.0 mi South 11.5 mph 17.3 mph N/A   Clear
6:53 PM 91.0 °F 93.8 °F 66.0 °F 44% 30.00 in 10.0 mi SSW 10.4 mph - N/A   Clear
7:53 PM 88.0 °F 90.7 °F 66.9 °F 49% 30.00 in 10.0 mi SSW 6.9 mph - N/A   Clear
8:53 PM 82.9 °F 85.8 °F 68.0 °F 60% 30.00 in 10.0 mi SSW 4.6 mph - N/A   Clear
9:53 PM 80.1 °F 82.7 °F 68.0 °F 67% 30.01 in 10.0 mi South 4.6 mph - N/A   Clear
10:53 PM 78.1 °F - 68.0 °F 71% 30.03 in 10.0 mi South 4.6 mph - N/A   Clear
11:53 PM 77.0 °F - 68.0 °F 74% 30.03 in 10.0 mi South 6.9 mph - N/A   Clear